Time,TemperatureF,DewpointF,PressureIn,WindDirection,WindDirectionDegrees,WindSpeedMPH,WindSpeedGustMPH,Humidity,HourlyPrecipIn,Conditions,Clouds,dailyrainin,SoftwareType,DateUTC
2013-01-14 00:03:00,19.0,18.0,30.24,NW,324,1.0,7.0,96,0.00,,,0.60,,2013-01-14 05:03:00,
2013-01-14 00:12:00,19.0,18.0,30.24,NW,324,1.0,7.0,96,0.00,,,0.60,,2013-01-14 05:12:00,
2013-01-14 00:22:00,20.0,17.0,30.24,NNW,341,1.0,5.0,89,0.00,,,0.60,,2013-01-14 05:22:00,
2013-01-14 00:32:00,19.0,16.0,30.25,NNW,344,1.0,6.0,88,0.00,,,0.50,,2013-01-14 05:32:00,
2013-01-14 00:42:00,19.0,16.0,30.25,NNW,344,1.0,6.0,88,0.00,,,0.50,,2013-01-14 05:42:00,
2013-01-14 00:53:00,18.0,15.0,30.25,NNW,332,3.0,6.0,86,0.00,,,0.50,,2013-01-14 05:53:00,
2013-01-14 01:02:00,18.0,15.0,30.26,NW,325,4.0,6.0,86,0.00,,,0.50,,2013-01-14 06:02:00,
2013-01-14 01:12:00,18.0,15.0,30.26,NW,325,4.0,6.0,86,0.00,,,0.50,,2013-01-14 06:12:00,
2013-01-14 01:22:00,18.0,15.0,30.27,NNW,330,4.0,7.0,86,0.00,,,0.50,,2013-01-14 06:22:00,
2013-01-14 01:32:00,17.0,14.0,30.27,NW,325,4.0,9.0,86,0.00,,,0.23,,2013-01-14 06:32:00,
2013-01-14 01:42:00,17.0,14.0,30.27,NW,325,4.0,9.0,86,0.00,,,0.23,,2013-01-14 06:42:00,
2013-01-14 01:53:00,17.0,14.0,30.28,NNW,330,3.0,6.0,86,0.00,,,0.23,,2013-01-14 06:53:00,
2013-01-14 02:02:00,17.0,14.0,30.29,NNW,327,4.0,9.0,86,0.00,,,0.23,,2013-01-14 07:02:00,
2013-01-14 02:12:00,17.0,14.0,30.29,NNW,327,4.0,9.0,86,0.00,,,0.23,,2013-01-14 07:12:00,
2013-01-14 02:22:00,17.0,14.0,30.29,NNW,329,5.0,7.0,86,0.00,,,0.23,,2013-01-14 07:22:00,
2013-01-14 02:32:00,17.0,14.0,30.31,NW,323,1.0,5.0,86,0.00,,,0.10,,2013-01-14 07:32:00,
2013-01-14 02:42:00,17.0,14.0,30.31,NW,323,1.0,5.0,86,0.00,,,0.10,,2013-01-14 07:42:00,
2013-01-14 02:53:00,16.0,13.0,30.30,NW,325,3.0,6.0,86,0.00,,,0.10,,2013-01-14 07:53:00,
2013-01-14 03:02:00,16.0,13.0,30.31,NNW,327,4.0,6.0,87,0.00,,,0.10,,2013-01-14 08:02:00,
2013-01-14 03:12:00,16.0,13.0,30.31,NNW,327,4.0,6.0,87,0.00,,,0.10,,2013-01-14 08:12:00,
2013-01-14 03:22:00,16.0,13.0,30.32,NNW,327,4.0,8.0,86,0.00,,,0.10,,2013-01-14 08:22:00,
2013-01-14 03:32:00,16.0,13.0,30.32,NNW,328,3.0,7.0,87,0.00,,,0.06,,2013-01-14 08:32:00,
2013-01-14 03:42:00,16.0,13.0,30.32,NNW,328,3.0,7.0,87,0.00,,,0.06,,2013-01-14 08:42:00,
2013-01-14 03:53:00,16.0,13.0,30.33,NW,324,3.0,7.0,86,0.00,,,0.06,,2013-01-14 08:53:00,
2013-01-14 04:02:00,16.0,13.0,30.34,NNW,327,3.0,6.0,86,0.00,,,0.06,,2013-01-14 09:02:00,
2013-01-14 04:12:00,16.0,13.0,30.34,NNW,327,3.0,6.0,86,0.00,,,0.06,,2013-01-14 09:12:00,
2013-01-14 04:22:00,16.0,13.0,30.34,NNW,329,4.0,8.0,86,0.00,,,0.06,,2013-01-14 09:22:00,
2013-01-14 04:33:00,16.0,13.0,30.34,NW,323,1.0,4.0,86,0.00,,,0.06,,2013-01-14 09:33:00,
2013-01-14 04:42:00,16.0,13.0,30.34,NW,323,1.0,4.0,86,0.00,,,0.06,,2013-01-14 09:42:00,
2013-01-14 04:53:00,16.0,13.0,30.35,NW,323,4.0,7.0,86,0.00,,,0.06,,2013-01-14 09:53:00,
2013-01-14 05:02:00,15.0,12.0,30.35,NW,323,3.0,6.0,86,0.00,,,0.06,,2013-01-14 10:02:00,
2013-01-14 05:12:00,15.0,12.0,30.35,NW,323,3.0,6.0,86,0.00,,,0.06,,2013-01-14 10:12:00,
2013-01-14 05:22:00,15.0,12.0,30.35,NNW,327,1.0,7.0,86,0.00,,,0.06,,2013-01-14 10:22:00,
2013-01-14 05:32:00,15.0,12.0,30.35,North,5,2.0,5.0,86,0.00,,,0.06,,2013-01-14 10:32:00,
2013-01-14 05:42:00,15.0,12.0,30.35,North,5,2.0,5.0,86,0.00,,,0.06,,2013-01-14 10:42:00,
2013-01-14 05:53:00,15.0,12.0,30.35,North,360,1.0,3.0,87,0.00,,,0.06,,2013-01-14 10:53:00,
2013-01-14 06:02:00,15.0,12.0,30.35,North,355,2.0,5.0,87,0.00,,,0.06,,2013-01-14 11:02:00,
2013-01-14 06:12:00,15.0,12.0,30.35,North,355,2.0,5.0,87,0.00,,,0.06,,2013-01-14 11:12:00,
2013-01-14 06:22:00,15.0,12.0,30.35,North,360,0.0,6.0,87,0.00,,,0.06,,2013-01-14 11:22:00,
2013-01-14 06:32:00,15.0,12.0,30.36,North,360,2.0,5.0,87,0.00,,,0.06,,2013-01-14 11:32:00,
2013-01-14 06:42:00,15.0,12.0,30.36,North,360,2.0,5.0,87,0.00,,,0.06,,2013-01-14 11:42:00,
2013-01-14 06:53:00,15.0,12.0,30.37,North,5,1.0,5.0,87,0.00,,,0.06,,2013-01-14 11:53:00,
2013-01-14 07:03:00,15.0,12.0,30.38,North,349,1.0,5.0,87,0.00,,,0.06,,2013-01-14 12:03:00,
2013-01-14 07:12:00,15.0,12.0,30.38,North,349,1.0,5.0,87,0.00,,,0.06,,2013-01-14 12:12:00,
2013-01-14 07:23:00,15.0,12.0,30.38,NNE,15,1.0,7.0,86,0.00,,,0.06,,2013-01-14 12:23:00,
2013-01-14 07:33:00,15.0,12.0,30.39,NNE,14,1.0,3.0,87,0.00,,,0.06,,2013-01-14 12:33:00,
2013-01-14 07:43:00,15.0,12.0,30.39,NNE,14,1.0,3.0,87,0.00,,,0.06,,2013-01-14 12:43:00,
2013-01-14 07:53:00,15.0,12.0,30.40,NNW,346,2.0,6.0,87,0.00,,,0.06,,2013-01-14 12:53:00,
2013-01-14 08:03:00,15.0,12.0,30.40,NNE,28,1.0,4.0,86,0.00,,,0.06,,2013-01-14 13:03:00,
2013-01-14 08:12:00,15.0,12.0,30.40,NNE,28,1.0,4.0,86,0.00,,,0.06,,2013-01-14 13:12:00,
2013-01-14 08:22:00,15.0,12.0,30.40,NNE,17,2.0,3.0,86,0.00,,,0.06,,2013-01-14 13:22:00,
2013-01-14 08:33:00,15.0,12.0,30.41,NNE,17,2.0,4.0,86,0.00,,,0.06,,2013-01-14 13:33:00,
2013-01-14 08:43:00,15.0,12.0,30.41,NNE,17,2.0,4.0,86,0.00,,,0.06,,2013-01-14 13:43:00,
2013-01-14 08:53:00,15.0,12.0,30.41,NNE,24,1.0,4.0,87,0.01,,,0.07,,2013-01-14 13:53:00,
2013-01-14 09:02:00,15.0,12.0,30.42,NNE,24,1.0,4.0,87,0.01,,,0.07,,2013-01-14 14:02:00,
2013-01-14 09:12:00,15.0,12.0,30.42,NNE,24,1.0,4.0,87,0.01,,,0.07,,2013-01-14 14:12:00,
2013-01-14 09:22:00,15.0,12.0,30.42,NNE,24,0.0,3.0,87,0.01,,,0.07,,2013-01-14 14:22:00,
2013-01-14 09:33:00,16.0,13.0,30.42,NNE,26,1.0,5.0,87,0.01,,,0.07,,2013-01-14 14:33:00,
2013-01-14 09:43:00,16.0,13.0,30.42,NNE,26,1.0,5.0,87,0.01,,,0.07,,2013-01-14 14:43:00,
2013-01-14 09:53:00,16.0,13.0,30.42,NE,46,2.0,5.0,87,0.00,,,0.07,,2013-01-14 14:53:00,
2013-01-14 10:03:00,17.0,14.0,30.42,NNE,20,0.0,5.0,86,0.00,,,0.07,,2013-01-14 15:03:00,
2013-01-14 10:12:00,17.0,14.0,30.42,NNE,20,0.0,5.0,86,0.00,,,0.07,,2013-01-14 15:12:00,
2013-01-14 10:23:00,17.0,14.0,30.42,NNE,19,1.0,3.0,86,0.00,,,0.07,,2013-01-14 15:23:00,
2013-01-14 10:33:00,18.0,14.0,30.40,East,80,0.0,5.0,85,0.00,,,0.07,,2013-01-14 15:33:00,
2013-01-14 10:43:00,18.0,14.0,30.40,East,80,0.0,5.0,85,0.00,,,0.07,,2013-01-14 15:43:00,
2013-01-14 10:53:00,18.0,14.0,30.41,ENE,59,2.0,7.0,85,0.00,,,0.07,,2013-01-14 15:53:00,
2013-01-14 11:03:00,18.0,14.0,30.40,NE,49,1.0,5.0,85,0.00,,,0.07,,2013-01-14 16:03:00,
2013-01-14 11:12:00,18.0,14.0,30.40,NE,49,1.0,5.0,85,0.00,,,0.07,,2013-01-14 16:12:00,
2013-01-14 11:23:00,18.0,14.0,30.41,East,92,1.0,5.0,85,0.00,,,0.07,,2013-01-14 16:23:00,
2013-01-14 11:33:00,18.0,14.0,30.40,East,96,1.0,8.0,84,0.00,,,0.07,,2013-01-14 16:33:00,
2013-01-14 11:43:00,18.0,14.0,30.40,East,96,1.0,8.0,84,0.00,,,0.07,,2013-01-14 16:43:00,
2013-01-14 11:53:00,19.0,15.0,30.40,East,91,2.0,8.0,84,0.00,,,0.07,,2013-01-14 16:53:00,
2013-01-14 12:03:00,20.0,16.0,30.41,East,98,0.0,5.0,83,0.00,,,0.07,,2013-01-14 17:03:00,
2013-01-14 12:12:00,20.0,16.0,30.41,East,98,0.0,5.0,83,0.00,,,0.07,,2013-01-14 17:12:00,
2013-01-14 12:23:00,20.0,16.0,30.41,NE,55,2.0,4.0,84,0.00,,,0.07,,2013-01-14 17:23:00,
2013-01-14 12:33:00,20.0,15.0,30.43,NE,55,0.0,1.0,82,0.00,,,0.07,,2013-01-14 17:33:00,
2013-01-14 12:43:00,20.0,15.0,30.43,NE,55,0.0,1.0,82,0.00,,,0.07,,2013-01-14 17:43:00,
2013-01-14 12:53:00,20.0,15.0,30.42,NE,55,0.0,1.0,82,0.00,,,0.07,,2013-01-14 17:53:00,
2013-01-14 13:03:00,21.0,17.0,30.42,NE,55,0.0,2.0,83,0.00,,,0.07,,2013-01-14 18:03:00,
2013-01-14 13:12:00,22.0,18.0,30.40,NE,55,0.0,2.0,85,0.00,,,0.07,,2013-01-14 18:12:00,
2013-01-14 13:23:00,22.0,18.0,30.40,NE,55,0.0,2.0,85,0.00,,,0.07,,2013-01-14 18:23:00,
2013-01-14 13:33:00,22.0,18.0,30.42,NE,55,0.0,1.0,83,0.00,,,0.07,,2013-01-14 18:33:00,
2013-01-14 13:42:00,22.0,18.0,30.42,NE,55,0.0,1.0,83,0.00,,,0.07,,2013-01-14 18:42:00,
2013-01-14 13:53:00,23.0,19.0,30.41,NE,55,1.0,4.0,83,0.00,,,0.07,,2013-01-14 18:53:00,
2013-01-14 14:03:00,23.0,19.0,30.41,NE,55,0.0,1.0,83,0.00,,,0.07,,2013-01-14 19:03:00,
2013-01-14 14:12:00,23.0,19.0,30.41,NE,55,0.0,1.0,83,0.00,,,0.07,,2013-01-14 19:12:00,
2013-01-14 14:22:00,23.0,19.0,30.41,NE,55,0.0,2.0,83,0.00,,,0.07,,2013-01-14 19:22:00,
2013-01-14 14:33:00,23.0,18.0,30.42,NE,55,0.0,3.0,82,0.00,,,0.01,,2013-01-14 19:33:00,
2013-01-14 14:43:00,23.0,18.0,30.42,NE,55,0.0,3.0,82,0.00,,,0.01,,2013-01-14 19:43:00,
2013-01-14 14:53:00,23.0,19.0,30.40,NE,55,1.0,3.0,83,0.00,,,0.01,,2013-01-14 19:53:00,
2013-01-14 15:03:00,23.0,19.0,30.42,NE,55,0.0,1.0,84,0.00,,,0.01,,2013-01-14 20:03:00,
2013-01-14 15:12:00,23.0,19.0,30.42,NE,55,0.0,1.0,84,0.00,,,0.01,,2013-01-14 20:12:00,
2013-01-14 15:22:00,23.0,19.0,30.44,NE,55,0.0,2.0,84,0.00,,,0.01,,2013-01-14 20:22:00,
2013-01-14 15:33:00,23.0,19.0,30.44,NE,55,1.0,2.0,83,0.00,,,0.01,,2013-01-14 20:33:00,
2013-01-14 15:42:00,23.0,19.0,30.44,NE,55,1.0,2.0,83,0.00,,,0.01,,2013-01-14 20:42:00,
2013-01-14 15:53:00,23.0,18.0,30.44,NE,55,0.0,2.0,82,0.00,,,0.01,,2013-01-14 20:53:00,
2013-01-14 16:02:00,22.0,18.0,30.46,NE,55,1.0,1.0,83,0.00,,,0.01,,2013-01-14 21:02:00,
2013-01-14 16:12:00,22.0,18.0,30.46,NE,55,1.0,1.0,83,0.00,,,0.01,,2013-01-14 21:12:00,
2013-01-14 16:23:00,23.0,19.0,30.46,NE,55,1.0,2.0,84,0.00,,,0.01,,2013-01-14 21:23:00,
2013-01-14 16:33:00,23.0,19.0,30.46,NE,55,0.0,2.0,83,0.00,,,0.01,,2013-01-14 21:33:00,
2013-01-14 16:42:00,23.0,19.0,30.46,NE,55,0.0,2.0,83,0.00,,,0.01,,2013-01-14 21:42:00,
2013-01-14 16:53:00,23.0,19.0,30.46,NE,55,1.0,3.0,83,0.00,,,0.01,,2013-01-14 21:53:00,
2013-01-14 17:02:00,23.0,18.0,30.45,NE,55,0.0,2.0,82,0.00,,,0.01,,2013-01-14 22:02:00,
2013-01-14 17:12:00,23.0,18.0,30.45,NE,55,0.0,2.0,82,0.00,,,0.01,,2013-01-14 22:12:00,
2013-01-14 17:23:00,23.0,19.0,30.45,NE,55,0.0,2.0,83,0.00,,,0.01,,2013-01-14 22:23:00,
2013-01-14 17:32:00,23.0,18.0,30.44,NE,55,0.0,1.0,82,0.00,,,0.01,,2013-01-14 22:32:00,
2013-01-14 17:43:00,23.0,18.0,30.44,NE,55,0.0,1.0,82,0.00,,,0.01,,2013-01-14 22:43:00,
2013-01-14 17:53:00,22.0,17.0,30.43,NE,55,0.0,1.0,82,0.00,,,0.01,,2013-01-14 22:53:00,
2013-01-14 18:03:00,22.0,18.0,30.42,NE,55,0.0,1.0,83,0.00,,,0.01,,2013-01-14 23:03:00,
2013-01-14 18:12:00,22.0,18.0,30.42,NE,55,0.0,1.0,83,0.00,,,0.01,,2013-01-14 23:12:00,
2013-01-14 18:23:00,21.0,17.0,30.42,NE,55,0.0,0.0,84,0.00,,,0.01,,2013-01-14 23:23:00,
2013-01-14 18:33:00,21.0,17.0,30.42,NE,55,0.0,0.0,84,0.00,,,0.01,,2013-01-14 23:33:00,
2013-01-14 18:43:00,21.0,17.0,30.42,NE,55,0.0,0.0,84,0.00,,,0.01,,2013-01-14 23:43:00,
2013-01-14 18:53:00,20.0,16.0,30.42,NE,55,0.0,0.0,85,0.00,,,0.01,,2013-01-14 23:53:00,
2013-01-14 19:02:00,19.0,16.0,30.42,NE,55,0.0,0.0,86,0.00,,,0.01,,2013-01-15 00:02:00,
2013-01-14 19:12:00,19.0,16.0,30.42,NE,55,0.0,0.0,86,0.00,,,0.01,,2013-01-15 00:12:00,
2013-01-14 19:22:00,19.0,16.0,30.42,NE,55,0.0,0.0,87,0.00,,,0.01,,2013-01-15 00:22:00,
2013-01-14 19:32:00,19.0,16.0,30.42,NE,55,0.0,0.0,88,0.00,,,0.01,,2013-01-15 00:32:00,
2013-01-14 19:43:00,19.0,16.0,30.42,NE,55,0.0,0.0,88,0.00,,,0.01,,2013-01-15 00:43:00,
2013-01-14 19:53:00,18.0,15.0,30.42,NE,55,0.0,0.0,88,0.00,,,0.01,,2013-01-15 00:53:00,
2013-01-14 20:02:00,18.0,15.0,30.42,NE,55,0.0,0.0,89,0.00,,,0.01,,2013-01-15 01:02:00,
2013-01-14 20:12:00,18.0,15.0,30.42,NE,55,0.0,1.0,89,0.00,,,0.01,,2013-01-15 01:12:00,
2013-01-14 20:22:00,18.0,15.0,30.42,NE,55,0.0,1.0,89,0.00,,,0.01,,2013-01-15 01:22:00,
2013-01-14 20:32:00,18.0,16.0,30.41,NE,55,0.0,0.0,90,0.00,,,0.01,,2013-01-15 01:32:00,
2013-01-14 20:43:00,18.0,16.0,30.41,NE,55,0.0,0.0,90,0.00,,,0.01,,2013-01-15 01:43:00,
2013-01-14 20:52:00,17.0,15.0,30.41,NE,55,0.0,0.0,90,0.00,,,0.01,,2013-01-15 01:52:00,
2013-01-14 21:02:00,17.0,15.0,30.40,NE,55,0.0,2.0,90,0.00,,,0.01,,2013-01-15 02:02:00,
2013-01-14 21:12:00,17.0,15.0,30.40,NE,55,0.0,2.0,90,0.00,,,0.01,,2013-01-15 02:12:00,
2013-01-14 21:22:00,17.0,15.0,30.40,NE,55,1.0,2.0,91,0.00,,,0.01,,2013-01-15 02:22:00,
2013-01-14 21:32:00,18.0,16.0,30.40,NE,55,1.0,3.0,91,0.00,,,0.01,,2013-01-15 02:32:00,
2013-01-14 21:42:00,18.0,16.0,30.40,NE,55,1.0,3.0,91,0.00,,,0.01,,2013-01-15 02:42:00,
2013-01-14 21:53:00,18.0,16.0,30.40,NE,55,0.0,2.0,91,0.00,,,0.01,,2013-01-15 02:53:00,
2013-01-14 22:02:00,18.0,16.0,30.40,NE,55,0.0,1.0,90,0.00,,,0.01,,2013-01-15 03:02:00,
2013-01-14 22:12:00,18.0,16.0,30.40,NE,55,0.0,1.0,90,0.00,,,0.01,,2013-01-15 03:12:00,
2013-01-14 22:22:00,18.0,16.0,30.39,NE,55,1.0,2.0,90,0.00,,,0.01,,2013-01-15 03:22:00,
2013-01-14 22:33:00,18.0,16.0,30.39,NE,55,0.0,2.0,90,0.00,,,0.01,,2013-01-15 03:33:00,
2013-01-14 22:42:00,18.0,16.0,30.39,NE,55,0.0,2.0,90,0.00,,,0.01,,2013-01-15 03:42:00,
2013-01-14 22:53:00,18.0,16.0,30.40,NE,55,0.0,2.0,90,0.00,,,0.01,,2013-01-15 03:53:00,
2013-01-14 23:02:00,18.0,16.0,30.40,NE,55,0.0,1.0,90,0.00,,,0.01,,2013-01-15 04:02:00,
2013-01-14 23:12:00,18.0,16.0,30.40,NE,55,0.0,1.0,90,0.00,,,0.01,,2013-01-15 04:12:00,
2013-01-14 23:22:00,17.0,15.0,30.40,NE,55,0.0,0.0,90,0.00,,,0.01,,2013-01-15 04:22:00,
2013-01-14 23:32:00,17.0,15.0,30.40,NE,55,0.0,1.0,90,0.00,,,0.01,,2013-01-15 04:32:00,
2013-01-14 23:42:00,17.0,15.0,30.40,NE,55,0.0,1.0,90,0.00,,,0.01,,2013-01-15 04:42:00,
2013-01-14 23:52:00,17.0,15.0,30.40,NE,55,0.0,0.0,90,0.00,,,0.01,,2013-01-15 04:52:00,